#timestamp,LO_Frequency,Hit,StdDev 
1633550415.3,286046998.5,N
1633550435.1,286047001.2,N
1633550455.9,286047000.2,N
1633550475.7,286046999.7,N
1633550495.6,286047002.7,N
1633550515.4,286047001.0,N
1633550535.3,286047000.6,N
1633550555.1,286047000.7,N
1633550575.9,286046999.7,N
1633550595.7,286047000.0,N
1633550615.5,286046998.3,N
1633550635.4,286046998.3,N
1633550655.2,286046999.0,N
1633550675.1,286046999.0,N
1633550676.0,286046999.0,N
1633550695.8,286046998.8,N
1633550715.6,286046998.6,N
1633550735.5,286046998.7,N
1633550755.3,286046999.1,N
1633550775.1,286046998.6,N
1633550795.9,286047000.8,N
1633550815.7,286047000.6,N
1633550835.6,286046998.6,N
1633550855.4,286047000.0,N
1633550875.2,286047000.7,N
1633550895.1,286047000.4,N
1633550896.0,286047000.4,N
1633550915.8,286047001.2,N
1633550935.6,286046998.4,N
1633550955.5,286047000.8,N
1633550975.3,286046999.4,N
1633550995.2,286046997.3,N
1633551015.9,286046997.3,N
1633551035.7,286046996.7,N
1633551055.6,286046997.7,N
1633551075.4,286046999.4,N
1633551095.3,286046999.1,N
1633551115.1,286046999.2,N
1633551116.0,286046999.2,N
1633551135.8,286046999.0,N
1633551155.7,286046998.5,N
1633551175.5,286047001.0,N
1633551195.3,286047000.8,N
1633551215.2,286046998.3,N
1633551235.0,286047001.2,N
1633551235.9,286047001.2,N
1633551255.8,286046998.3,N
1633551275.6,286046996.7,N
1633551295.4,286046998.9,N
1633551315.3,286046998.6,N
1633551335.1,286046998.7,N
1633551355.9,286046998.1,N
1633551375.7,286047000.5,N
1633551395.5,286047000.6,N
1633551415.4,286047001.2,N
1633551435.2,286047000.4,N
1633551455.1,286047001.0,N
1633551456.0,286047001.0,N
1633551475.8,286047000.4,N
1633551495.6,286047000.7,N
1633551515.5,286047001.0,N
1633551535.3,286047000.3,N
1633551555.1,286046998.4,N
1633551575.9,286047000.5,N
1633551595.7,286047000.0,N
1633551615.6,286047000.3,N
1633551635.4,286046998.4,N
1633551655.2,286047001.1,N
1633551675.1,286047001.1,N
1633551676.0,286047001.1,N
1633551695.8,286047000.3,N
1633551715.7,286046999.7,N
1633551735.5,286047000.8,N
1633551755.3,286047001.2,N
1633551775.2,286047001.2,N
1633551795.0,286047000.5,N
1633551795.9,286047000.5,N
1633551815.7,286046999.7,N
1633551835.6,286046999.8,N
1633551855.4,286047000.1,N
1633551875.3,286046999.7,N
1633551895.1,286047002.3,N
1633551896.0,286047002.3,N
1633551915.8,286047000.8,N
1633551935.7,286046998.3,N
1633551955.5,286046997.3,N
1633551975.3,286046997.4,N
1633551995.2,286046996.8,N
1633552015.0,286046999.0,N
1633552015.9,286046999.0,N
1633552035.8,286046999.6,N
1633552055.6,286046996.8,N
1633552075.4,286046997.7,N
1633552095.3,286046997.3,N
1633552115.1,286046997.8,N
1633552135.9,286046997.0,N
1633552155.7,286046996.5,N
1633552175.5,286046996.6,N
1633552195.4,286046997.0,N
1633552215.2,286046999.4,N
1633552235.0,286046999.6,N
1633552235.9,286046999.6,N
1633552255.8,286046998.7,N
1633552275.6,286046999.4,N
1633552295.5,286046998.4,N
1633552315.3,286047000.8,N
1633552335.1,286047000.6,N
1633552355.9,286047001.2,N
1633552375.7,286047000.4,N
1633552395.6,286047000.4,N
1633552415.4,286047002.8,N
1633552435.2,286047002.3,N
1633552455.1,286047002.8,N
1633552456.0,286047002.8,N
1633552475.8,286046999.9,N
1633552495.7,286047002.1,N
1633552515.5,286047001.4,N
1633552535.3,286047004.0,N
1633552555.2,286047004.2,N
1633552575.0,286047001.6,N
1633552575.9,286047001.6,N
1633552595.7,286047002.5,N
1633552615.6,286047002.4,N
1633552635.4,286047002.5,N
1633552655.3,286046999.7,N
1633552675.1,286046999.7,N
1633552695.8,286047002.3,N
1633552715.7,286047002.8,N
1633552735.5,286047000.6,N
1633552755.4,286047000.5,N
1633552775.2,286047000.7,N
1633552795.0,286047001.2,N
1633552795.9,286047001.2,N
1633552815.8,286046999.1,N
1633552835.6,286046997.0,N
1633552855.4,286046999.4,N
1633552875.3,286046998.9,N
1633552895.1,286046997.8,N
1633552915.9,286046996.8,N
1633552935.7,286046998.3,N
1633552955.5,286046998.2,N
1633552975.4,286047001.1,N
1633552995.2,286047000.7,N
1633553015.1,286046998.5,N
1633553016.0,286046998.5,N
1633553035.8,286046996.9,N
1633553055.6,286046997.7,N
1633553075.5,286046997.8,N
1633553095.3,286046997.1,N
1633553115.2,286046997.8,N
1633553135.9,286046996.5,N
1633553155.7,286046998.7,N
1633553175.6,286046998.3,N
1633553195.4,286047001.1,N
1633553215.3,286047001.2,N
1633553235.1,286046998.5,N
1633553236.0,286046998.5,N
1633553255.8,286047000.5,N
1633553275.7,286046998.8,N
1633553295.5,286047001.0,N
1633553315.3,286046998.9,N
1633553335.2,286046999.1,N
1633553355.0,286046999.0,N
1633553355.9,286046999.0,N
1633553375.8,286047000.5,N
1633553395.6,286046998.2,N
1633553415.4,286046998.3,N
1633553435.3,286046998.7,N
1633553455.1,286046998.9,N
1633553475.9,286046999.6,N
1633553495.7,286046996.7,N
1633553515.5,286046996.9,N
1633553535.4,286046999.0,N
1633553555.2,286046999.3,N
1633553575.0,286046998.9,N
1633553575.9,286046998.9,N
1633553595.8,286046999.1,N
1633553615.6,286046997.0,N
1633553635.5,286046999.2,N
1633553655.3,286046997.3,N
1633553675.1,286046999.0,N
1633553695.9,286047001.1,N
1633553715.7,286046999.4,N
1633553735.6,286046999.3,N
1633553755.4,286046998.4,N
1633553775.2,286046999.5,N
1633553795.1,286046999.1,N
1633553796.0,286046999.1,N
1633553815.8,286046999.3,N
1633553835.7,286046999.3,N
1633553855.5,286046999.0,N
1633553875.3,286046998.8,N
1633553895.2,286046998.4,N
1633553915.0,286046999.6,N
1633553915.9,286046999.6,N
1633553935.7,286046998.7,N
1633553955.6,286046998.3,N
1633553975.4,286046998.6,N
1633553995.3,286046998.5,N
